When you browse on this site, cookies collect data to enhance your experience and personalize the content and advertising you see.
Visit our Privacy Policy to learn more. By continuing to use the site, you agree to this use of cookies and data.
  • In Germany
  • List of Countries
  • For 7 days
  • Water Temperature
  • Weather Map
  • Weather Widgets
  • user-avatar
    Login

    Hourly Weather Mingachevir

    Today, 6 June, Saturday

    Time Temperature Precipitation Wind Pressure Humidity
    00:00 +23°C° 0 mm 2 mps 755 mmHg 60%
    01:00 +21°C° 0 mm 2 mps 755 mmHg 62%
    02:00 +21°C° 0 mm 2 mps 755 mmHg 63%
    03:00 +20°C° 0 mm 2 mps 755 mmHg 63%
    04:00 +21°C° 0 mm 2 mps 755 mmHg 62%
    05:00 +21°C° 0 mm 2 mps 755 mmHg 60%
    06:00 +23°C° 0 mm 1 mps 756 mmHg 59%
    07:00 +24°C° 0 mm 2 mps 756 mmHg 54%
    08:00 +26°C° 0 mm 3 mps 755 mmHg 48%
    09:00 +27°C° 0 mm 3 mps 756 mmHg 43%
    10:00 +28°C° 0 mm 3 mps 755 mmHg 40%
    11:00 +29°C° 0 mm 3 mps 755 mmHg 38%
    12:00 +30°C° 0 mm 3 mps 755 mmHg 35%
    13:00 +31°C° 0 mm 3 mps 755 mmHg 35%
    14:00 +31°C° 0 mm 3 mps 755 mmHg 34%
    15:00 +31°C° 0 mm 3 mps 754 mmHg 34%
    16:00 +31°C° 0 mm 3 mps 755 mmHg 35%
    17:00 +32°C° 0 mm 4 mps 755 mmHg 37%
    18:00 +30°C° 0 mm 4 mps 755 mmHg 38%
    19:00 +29°C° 0 mm 4 mps 755 mmHg 43%
    20:00 +27°C° 0 mm 4 mps 755 mmHg 48%
    21:00 +25°C° 0 mm 5 mps 756 mmHg 53%
    22:00 +23°C° 0 mm 4 mps 756 mmHg 55%
    23:00 +22°C° 0 mm 4 mps 756 mmHg 57%

    Tomorrow, 7 June, Sunday

    Time Temperature Precipitation Wind Pressure Humidity
    00:00 +21°C° 0 mm 4 mps 756 mmHg 60%
    01:00 +21°C° 0 mm 3 mps 756 mmHg 61%
    02:00 +20°C° 0 mm 2 mps 755 mmHg 63%
    03:00 +21°C° 0 mm 1 mps 755 mmHg 65%
    04:00 +21°C° 0 mm 1 mps 755 mmHg 62%
    05:00 +22°C° 0 mm 1 mps 755 mmHg 60%
    06:00 +23°C° 0 mm 1 mps 755 mmHg 57%
    07:00 +24°C° 0 mm 1 mps 755 mmHg 52%
    08:00 +26°C° 0 mm 1 mps 755 mmHg 47%
    09:00 +28°C° 0 mm 2 mps 754 mmHg 42%
    10:00 +29°C° 0 mm 2 mps 754 mmHg 39%
    11:00 +31°C° 0 mm 1 mps 754 mmHg 35%
    12:00 +32°C° 0 mm 1 mps 753 mmHg 32%
    13:00 +34°C° 0 mm 2 mps 753 mmHg 30%
    14:00 +35°C° 0 mm 2 mps 753 mmHg 27%
    15:00 +35°C° 0 mm 3 mps 752 mmHg 25%
    16:00 +35°C° 0 mm 3 mps 752 mmHg 26%
    17:00 +34°C° 0 mm 3 mps 752 mmHg 27%
    18:00 +34°C° 0 mm 3 mps 752 mmHg 28%
    19:00 +31°C° 0 mm 3 mps 752 mmHg 33%
    20:00 +29°C° 0 mm 4 mps 752 mmHg 38%
    21:00 +27°C° 0 mm 4 mps 753 mmHg 43%
    22:00 +26°C° 0 mm 4 mps 753 mmHg 46%
    23:00 +24°C° 0 mm 3 mps 753 mmHg 50%

    Day after tomorrow, 8 June, Monday

    Time Temperature Precipitation Wind Pressure Humidity
    00:00 +22°C° 0 mm 3 mps 753 mmHg 53%
    01:00 +21°C° 0 mm 2 mps 753 mmHg 56%
    02:00 +21°C° 0 mm 2 mps 752 mmHg 59%
    03:00 +21°C° 0 mm 1 mps 752 mmHg 61%
    04:00 +22°C° 0 mm 1 mps 752 mmHg 59%
    05:00 +23°C° 0 mm 1 mps 752 mmHg 57%
    06:00 +21°C° 0 mm 0 mps 752 mmHg 55%
    07:00 +25°C° 0 mm 1 mps 752 mmHg 49%
    08:00 +27°C° 0 mm 1 mps 752 mmHg 43%
    09:00 +29°C° 0 mm 2 mps 752 mmHg 38%
    10:00 +30°C° 0 mm 3 mps 752 mmHg 33%
    11:00 +33°C° 0 mm 3 mps 751 mmHg 29%
    12:00 +35°C° 0 mm 4 mps 751 mmHg 25%
    13:00 +35°C° 0 mm 4 mps 751 mmHg 23%
    14:00 +36°C° 0 mm 4 mps 750 mmHg 22%
    15:00 +37°C° 0 mm 5 mps 750 mmHg 20%
    16:00 +36°C° 0 mm 5 mps 750 mmHg 21%
    17:00 +35°C° 0 mm 5 mps 750 mmHg 22%
    18:00 +34°C° 0 mm 5 mps 750 mmHg 24%
    19:00 +32°C° 0 mm 5 mps 750 mmHg 29%
    20:00 +29°C° 0 mm 4 mps 751 mmHg 34%
    21:00 +26°C° 0 mm 4 mps 751 mmHg 39%
    22:00 +25°C° 0 mm 4 mps 751 mmHg 44%
    23:00 +24°C° 0 mm 3 mps 751 mmHg 49%

    9 June, Tuesday

    Time Temperature Precipitation Wind Pressure Humidity
    00:00 +22°C° 0 mm 3 mps 751 mmHg 54%
    01:00 +21°C° 0 mm 2 mps 751 mmHg 56%
    02:00 +21°C° 0 mm 2 mps 751 mmHg 58%
    03:00 +21°C° 0 mm 1 mps 751 mmHg 60%
    04:00 +22°C° 0 mm 1 mps 751 mmHg 57%
    05:00 +23°C° 0 mm 1 mps 751 mmHg 53%
    06:00 +24°C° 0 mm 1 mps 752 mmHg 50%
    07:00 +26°C° 0 mm 1 mps 752 mmHg 44%
    08:00 +28°C° 0 mm 1 mps 751 mmHg 39%
    09:00 +29°C° 0 mm 2 mps 751 mmHg 33%
    10:00 +31°C° 0 mm 2 mps 751 mmHg 30%
    11:00 +32°C° 0 mm 2 mps 751 mmHg 27%
    12:00 +34°C° 0 mm 3 mps 751 mmHg 24%
    13:00 +35°C° 0 mm 3 mps 751 mmHg 23%
    14:00 +36°C° 0 mm 3 mps 750 mmHg 22%
    15:00 +36°C° 0 mm 3 mps 750 mmHg 22%
    16:00 +36°C° 0 mm 4 mps 750 mmHg 23%
    17:00 +35°C° 0 mm 4 mps 750 mmHg 25%
    18:00 +35°C° 0 mm 4 mps 750 mmHg 26%
    19:00 +32°C° 0 mm 4 mps 751 mmHg 31%
    20:00 +29°C° 0 mm 3 mps 751 mmHg 35%
    21:00 +27°C° 0 mm 3 mps 751 mmHg 40%
    22:00 +26°C° 0 mm 2 mps 751 mmHg 42%
    23:00 +25°C° 0 mm 2 mps 751 mmHg 45%

    10 June, Wednesday

    Time Temperature Precipitation Wind Pressure Humidity
    00:00 +24°C° 0 mm 1 mps 751 mmHg 48%
    01:00 +24°C° 0 mm 1 mps 751 mmHg 48%
    02:00 +24°C° 0 mm 1 mps 751 mmHg 48%
    03:00 +21°C° 0 mm 0 mps 751 mmHg 48%
    04:00 +24°C° 0 mm 1 mps 751 mmHg 47%
    05:00 +25°C° 0 mm 1 mps 751 mmHg 45%
    06:00 +26°C° 0 mm 1 mps 752 mmHg 44%
    07:00 +27°C° 0 mm 1 mps 751 mmHg 39%
    08:00 +29°C° 0 mm 1 mps 751 mmHg 33%
    09:00 +31°C° 0 mm 1 mps 751 mmHg 28%
    10:00 +32°C° 0 mm 2 mps 751 mmHg 26%
    11:00 +35°C° 0 mm 2 mps 751 mmHg 25%
    12:00 +36°C° 0 mm 3 mps 751 mmHg 23%
    13:00 +37°C° 0 mm 3 mps 751 mmHg 22%
    14:00 +37°C° 0 mm 3 mps 750 mmHg 22%
    15:00 +38°C° 0 mm 4 mps 750 mmHg 22%
    16:00 +37°C° 0 mm 4 mps 750 mmHg 23%
    17:00 +37°C° 0 mm 4 mps 750 mmHg 25%
    18:00 +36°C° 0 mm 4 mps 750 mmHg 27%
    19:00 +34°C° 0 mm 4 mps 750 mmHg 30%
    20:00 +32°C° 0 mm 4 mps 750 mmHg 33%
    21:00 +30°C° 0 mm 3 mps 751 mmHg 36%
    22:00 +29°C° 0 mm 3 mps 751 mmHg 37%
    23:00 +28°C° 0 mm 3 mps 750 mmHg 37%

    11 June, Thursday

    Time Temperature Precipitation Wind Pressure Humidity
    00:00 +26°C° 0 mm 2 mps 750 mmHg 38%
    01:00 +26°C° 0 mm 2 mps 750 mmHg 39%
    02:00 +25°C° 0 mm 1 mps 750 mmHg 40%
    03:00 +24°C° 0 mm 1 mps 749 mmHg 41%
    04:00 +25°C° 0 mm 1 mps 749 mmHg 40%
    05:00 +24°C° 0 mm 0 mps 749 mmHg 39%
    06:00 +25°C° 0 mm 0 mps 749 mmHg 38%
    07:00 +26°C° 0 mm 0 mps 749 mmHg 33%
    08:00 +30°C° 0 mm 1 mps 749 mmHg 28%
    09:00 +32°C° 0 mm 1 mps 749 mmHg 24%
    10:00 +33°C° 0.2 mm 1 mps 749 mmHg 21%
    11:00 +35°C° 0.2 mm 2 mps 748 mmHg 19%
    12:00 +36°C° 0.2 mm 3 mps 748 mmHg 16%
    13:00 +37°C° 0.1 mm 3 mps 748 mmHg 16%
    14:00 +38°C° 0.1 mm 4 mps 747 mmHg 15%
    15:00 +40°C° 0.1 mm 4 mps 747 mmHg 15%
    16:00 +38°C° 0 mm 4 mps 747 mmHg 17%
    17:00 +39°C° 0 mm 5 mps 747 mmHg 19%
    18:00 +37°C° 0 mm 5 mps 747 mmHg 21%
    19:00 +35°C° 0 mm 4 mps 747 mmHg 23%
    20:00 +33°C° 0 mm 4 mps 748 mmHg 25%
    21:00 +30°C° 0 mm 3 mps 748 mmHg 27%
    22:00 +29°C° 0 mm 3 mps 748 mmHg 29%
    23:00 +28°C° 0 mm 3 mps 747 mmHg 31%
    Show more